RH
102 99 95 101 98 83 77 80 93 102 102 98 95 101 102 101 99 105 107 94 91 91 91 93 87 83 83 78 74 63 47 48 46 42 51 63 74 87 95 85 75 73 68 60 53 51 46 41 41 43 42 39 38 33 29 27 29 31 33 36 41 44 42 42 43 44 40 34 36 41 39 34 31 28 26 23 23 25 26 26 24 22 22 23 25 27 29 32 37 41 43 45 47 50 52 56 60
99 102 99 102 103 97 90 88 96 102 106 104 97 101 103 102 98 100 107 106 107 104 102 95 90 82 70 77 79 59 48 52 53 54 62 77 91 98 102 92 85 83 74 61 52 49 44 41 41 43 42 40 41 37 30 27 30 33 36 39 43 45 45 45 44 43 40 37 41 43 37 32 31 28 26 23 23 24 25 25 23 23 23 24 26 28 31 34 39 43 44 45 47 49 51 56 59
93 97 99 100 102 101 100 97 100 102 106 99 84 86 95 101 101 99 101 104 107 108 107 99 94 73 53 70 75 57 57 65 65 66 74 90 101 98 99 95 86 79 70 58 50 47 43 42 42 42 40 40 43 39 32 28 31 35 38 41 42 43 44 43 42 42 40 44 46 41 35 33 31 28 25 24 23 23 23 23 22 22 23 25 27 29 31 34 39 43 45 46 46 48 51 53 56
94 92 97 101 101 101 101 99 101 101 102 90 68 60 63 71 79 79 83 93 102 107 110 99 84 54 40 63 67 52 62 86 85 77 86 90 87 88 92 88 77 74 68 57 50 46 43 43 41 40 40 41 44 39 32 30 33 37 39 39 39 39 39 37 40 42 43 50 48 39 35 33 30 28 25 24 23 22 21 21 21 22 23 24 26 28 30 33 37 42 45 45 47 48 50 51 52
104 100 98 99 101 102 98 97 103 101 99 95 82 74 67 62 56 49 56 70 74 84 103 100 74 40 39 67 64 48 58 84 86 80 85 79 83 94 87 73 70 77 71 58 50 46 44 43 41 41 41 42 42 36 31 33 36 37 37 37 37 36 35 36 41 43 47 54 49 39 34 33 30 27 25 24 22 21 20 20 20 21 21 23 25 27 29 32 36 40 43 44 46 46 46 47 47
104 104 101 99 100 101 93 91 102 104 100 99 97 97 94 90 79 62 55 55 48 50 74 86 67 35 45 80 70 59 75 84 87 89 88 90 99 92 68 58 72 83 72 59 50 45 45 43 44 44 42 40 37 32 32 34 36 35 35 36 35 34 34 37 41 42 47 52 47 40 36 33 29 26 25 23 22 20 19 18 19 19 20 21 23 25 28 32 36 40 42 43 44 44 43 42 43
97 98 100 102 102 103 97 92 101 104 101 100 99 101 100 100 98 91 83 76 60 45 48 55 51 35 49 88 84 84 101 99 97 97 98 101 86 62 54 64 81 84 68 57 50 47 47 46 47 44 41 39 35 33 33 34 33 33 35 35 33 33 35 38 43 41 42 46 44 41 38 33 28 25 24 22 21 19 18 17 17 17 18 19 21 23 27 32 36 40 41 42 42 42 41 42 46
94 93 96 100 101 102 102 99 103 105 103 102 100 101 101 100 98 96 97 96 87 72 62 57 58 55 65 94 100 99 103 101 101 100 99 81 55 54 66 74 81 75 61 54 50 49 49 49 48 43 40 39 38 36 35 33 31 32 34 33 32 34 36 39 42 38 37 43 43 41 38 32 27 24 23 22 20 19 17 16 16 16 16 17 18 20 25 31 36 39 39 39 42 45 45 47 50
92 93 93 97 97 96 99 99 103 107 106 105 104 104 100 102 104 99 92 88 89 91 86 85 91 89 86 99 107 105 103 102 102 99 83 61 63 78 76 72 74 65 56 53 52 52 52 51 46 39 39 39 39 37 34 31 31 34 34 32 32 34 37 37 38 36 38 44 44 40 36 30 26 24 22 21 19 18 17 15 15 15 15 15 15 19 23 29 34 37 36 41 50 54 52 53 50
89 90 91 94 94 91 93 96 100 106 108 106 106 106 103 104 106 103 97 83 79 88 89 91 101 104 100 102 105 104 103 101 101 95 78 78 93 84 71 73 69 59 54 55 55 54 51 47 41 36 36 38 39 35 32 32 33 35 34 34 33 34 34 33 37 41 46 48 44 38 32 27 24 23 22 20 18 18 16 16 15 14 14 14 15 20 25 28 33 36 38 49 61 61 58 55 48
89 86 87 88 89 90 91 94 101 106 108 107 105 104 106 107 103 102 105 93 79 82 88 90 96 102 102 103 107 103 100 101 103 101 94 102 97 74 70 72 63 57 55 56 54 52 47 41 36 34 36 38 37 33 34 35 36 37 35 34 32 32 30 32 43 51 53 50 41 33 28 26 23 22 21 19 18 17 16 15 14 14 14 13 16 23 30 31 33 37 43 58 66 63 61 55 45
90 87 85 82 82 86 87 90 97 101 103 105 104 101 100 101 97 91 92 90 82 79 83 88 93 97 95 98 104 98 94 95 97 99 102 102 84 71 71 65 59 56 55 54 51 48 42 37 34 34 39 39 37 36 37 37 38 37 33 33 33 33 30 37 55 60 59 52 39 31 26 24 23 21 20 18 18 18 20 18 16 15 14 13 16 25 34 35 36 40 49 64 67 62 61 57 47
94 91 87 82 80 81 82 84 88 90 90 89 84 76 75 78 80 80 79 80 81 80 79 80 84 88 89 91 92 86 83 83 85 91 95 87 73 68 64 59 57 55 55 51 48 45 39 35 34 39 43 40 40 38 38 39 38 34 37 46 49 46 34 43 65 67 63 53 35 29 25 23 21 19 19 20 24 30 34 32 30 27 21 16 17 26 37 39 39 43 52 66 69 60 59 59 50
97 95 89 84 82 81 81 81 83 83 82 77 67 59 59 64 69 73 74 74 75 75 75 75 76 78 80 81 77 73 72 74 78 80 79 72 64 62 58 56 57 58 57 52 48 42 37 36 37 42 43 42 41 37 39 37 34 43 64 78 81 73 49 49 73 74 64 49 33 28 23 21 21 24 29 32 36 42 46 44 46 49 43 31 24 29 40 43 41 44 50 64 72 65 62 58 46
98 98 93 86 83 84 84 84 85 85 83 79 69 60 59 64 68 70 70 70 70 70 71 71 72 72 72 71 67 65 64 66 68 67 65 62 59 57 56 59 63 65 62 56 49 40 36 37 41 44 43 43 39 38 38 34 45 69 90 96 98 97 67 59 82 78 60 44 32 25 21 25 31 38 40 39 41 41 43 44 46 54 58 52 39 35 43 46 44 46 49 61 75 75 69 53 37
97 95 89 84 84 86 88 89 89 87 84 78 69 64 64 67 70 70 69 69 68 68 68 68 68 68 67 65 65 63 62 62 62 61 60 58 57 58 61 66 69 69 66 58 47 40 38 40 43 43 44 42 39 40 36 47 72 81 88 88 92 104 82 74 89 75 54 40 27 25 32 43 48 49 45 42 44 43 46 51 52 50 56 62 53 44 46 49 47 48 51 63 79 82 69 45 34
94 87 81 79 84 90 93 94 92 91 87 80 74 71 70 68 70 71 70 70 70 70 69 68 67 66 66 64 63 61 60 61 60 60 58 58 61 64 69 74 74 71 65 56 46 42 40 42 44 44 45 41 41 40 41 72 85 70 78 74 75 101 97 91 89 65 46 32 26 42 60 65 58 51 49 50 49 48 53 60 64 59 58 65 60 50 49 53 50 49 54 67 82 84 64 41 37
90 84 76 73 84 95 98 100 98 97 95 93 89 85 81 75 74 72 71 73 72 72 71 69 67 67 67 64 60 58 59 60 59 60 58 61 65 69 77 80 77 70 63 55 48 44 43 44 44 46 46 42 44 39 55 90 81 69 79 63 64 96 103 97 83 56 38 31 44 71 85 78 64 57 59 62 56 51 54 59 64 64 65 68 62 54 54 56 51 49 56 68 81 77 56 40 39
92 86 77 73 89 103 106 106 104 100 98 99 100 96 90 85 81 73 71 74 73 73 72 69 68 68 65 62 58 57 59 58 59 59 58 64 69 75 82 81 76 70 64 56 50 49 48 48 48 50 48 45 46 41 69 102 84 76 82 64 69 92 99 95 74 50 41 49 70 87 94 88 74 70 74 73 66 57 53 53 54 57 63 69 65 59 60 60 52 50 57 66 73 65 48 39 40
93 87 80 81 95 106 108 107 105 104 102 101 103 98 89 87 85 73 68 71 73 73 72 70 69 67 65 61 58 58 59 59 60 59 61 68 74 80 83 80 76 70 67 61 66 72 61 56 56 54 51 47 47 45 69 104 90 77 88 85 84 92 93 86 68 52 54 71 85 88 92 93 81 77 81 78 70 64 58 53 48 47 52 63 69 68 65 64 57 52 57 63 63 54 43 39 42
92 86 85 93 103 107 106 106 105 105 106 105 106 99 88 87 84 73 68 68 73 74 70 70 69 68 65 63 62 61 62 61 62 62 66 73 79 83 82 79 75 71 69 62 78 96 78 68 75 77 73 57 49 46 56 94 95 71 86 102 100 100 90 79 71 60 63 75 85 91 92 90 83 74 73 71 65 61 57 51 44 40 43 52 64 69 69 67 62 56 54 59 57 50 44 42 45
91 89 93 101 107 107 105 105 104 103 104 105 106 102 92 89 81 73 69 64 68 74 72 70 71 70 67 66 65 64 64 63 64 65 70 78 82 83 81 77 74 71 67 62 80 98 75 63 77 85 91 82 64 49 44 80 101 75 74 95 104 105 96 91 91 79 71 73 78 90 95 91 84 78 71 61 52 48 43 38 35 34 37 43 52 58 62 64 62 59 56 57 54 49 47 46 47
89 93 101 105 106 107 105 105 103 102 104 103 106 104 92 84 74 67 66 61 63 72 75 75 74 74 72 70 67 65 65 64 65 69 74 80 82 81 79 75 73 69 65 74 94 98 72 56 70 80 91 101 92 73 57 72 99 88 72 84 100 103 101 101 101 98 93 90 86 88 97 96 91 95 92 74 56 47 40 36 32 31 32 35 43 47 50 54 53 53 56 58 60 58 55 55 57
80 89 98 103 107 107 104 105 105 104 104 103 105 102 86 76 67 62 62 62 65 69 76 80 79 78 78 75 71 68 69 70 71 72 76 82 81 77 77 74 71 67 63 75 93 100 90 76 85 95 95 102 102 98 88 85 97 97 82 85 98 101 103 102 96 93 85 90 98 94 98 98 95 99 103 98 84 69 59 54 45 35 31 30 35 40 38 38 37 36 39 47 59 68 69 70 72
62 76 88 96 104 106 104 105 106 106 105 102 103 98 84 75 67 60 61 66 69 69 75 83 84 82 81 79 74 73 74 75 74 75 77 80 79 75 78 77 70 66 61 64 71 87 103 98 95 96 95 100 100 101 101 100 101 100 95 91 97 101 102 100 94 81 56 58 85 98 101 99 99 97 98 105 105 96 83 78 69 48 35 30 29 31 29 26 24 24 25 29 39 50 56 59 66
41 57 72 82 90 98 104 106 104 104 105 103 103 99 88 80 72 64 63 69 72 70 74 82 87 88 86 83 77 75 77 77 77 76 74 74 79 82 83 81 73 66 61 58 56 66 85 95 96 85 82 93 98 101 101 101 100 101 102 94 93 102 103 95 85 70 45 38 63 92 103 100 102 102 102 104 105 108 99 91 88 70 51 41 33 28 25 24 23 24 25 27 28 31 32 37 50
27 36 49 61 73 86 100 108 105 103 104 103 104 103 93 84 79 72 68 70 71 72 75 80 88 94 92 88 82 78 78 79 78 72 67 73 85 87 85 83 74 63 56 54 51 56 62 75 97 93 82 90 97 101 101 101 100 100 104 99 89 89 91 87 73 58 43 32 46 78 100 105 103 100 100 102 100 105 107 101 95 88 75 62 51 41 33 30 31 31 32 34 33 33 32 33 43
23 24 30 41 54 71 86 96 102 104 104 102 104 104 96 87 84 78 73 72 73 75 76 82 94 102 100 97 92 86 81 80 76 69 72 83 89 86 85 80 69 58 54 53 50 55 59 63 89 103 97 96 99 101 101 101 102 100 100 100 93 83 78 75 63 56 48 34 37 66 95 106 104 98 97 100 100 100 106 107 100 98 94 86 77 63 51 46 45 44 45 46 44 44 43 41 45
25 23 23 28 36 50 65 77 90 97 100 104 106 103 96 90 90 85 80 78 77 77 79 88 102 110 109 105 99 92 85 79 74 75 85 91 89 86 84 77 68 62 59 57 54 55 59 59 69 90 100 100 100 100 101 101 101 102 101 100 100 96 90 82 68 61 57 42 36 56 82 94 97 97 94 95 101 102 104 106 104 103 100 100 95 82 74 70 66 63 61 60 59 58 55 53 54
25 25 23 24 25 31 43 58 73 80 88 100 101 99 99 100 100 96 92 88 84 83 85 93 107 113 110 103 95 91 86 76 71 81 92 92 88 86 83 78 72 67 63 61 60 57 58 58 56 66 82 93 100 100 99 102 101 100 103 103 101 100 97 93 86 78 72 60 51 59 74 84 91 94 88 86 95 100 102 105 105 104 102 102 103 99 96 92 87 82 78 81 82 76 69 64 60
24 25 23 24 24 24 29 37 50 60 72 86 87 88 98 102 102 102 99 96 92 91 91 96 107 108 100 93 86 83 79 73 76 87 91 89 88 87 82 79 75 70 66 63 62 59 56 57 57 57 63 75 93 101 99 102 102 100 102 103 102 102 95 85 82 85 87 84 81 85 88 85 87 90 85 86 93 93 96 103 105 105 103 101 102 103 104 100 98 96 94 97 98 90 80 74 69
24 23 23 25 25 24 26 26 31 40 51 65 67 73 88 93 97 102 101 99 98 97 98 100 104 99 92 88 83 78 75 76 85 89 87 86 87 87 83 79 76 71 68 64 61 61 58 56 56 56 57 61 77 96 101 101 103 101 101 103 103 103 97 82 70 68 72 75 77 81 82 76 73 82 87 90 93 89 88 96 101 102 101 101 101 102 104 103 102 103 102 102 102 99 92 89 87
24 23 23 24 25 26 27 25 25 27 32 42 46 56 73 79 88 99 101 101 101 100 102 101 101 98 91 86 84 83 82 83 86 85 83 84 85 85 83 80 77 73 69 65 61 60 60 58 53 51 52 53 60 79 91 98 104 103 101 102 104 105 102 93 81 70 63 65 70 69 65 60 61 75 86 87 88 84 81 86 91 90 89 95 100 101 102 102 103 105 104 104 104 106 105 105 106
25 26 25 23 23 25 27 26 25 25 24 27 30 39 53 63 74 86 94 102 103 102 102 100 99 96 87 84 86 87 86 84 82 81 81 82 83 82 81 79 77 74 69 64 60 58 56 56 53 50 49 49 51 59 69 80 92 101 103 101 102 104 105 102 96 90 81 74 74 67 56 56 63 73 80 79 76 73 71 74 76 74 73 82 92 99 104 103 103 105 104 105 105 108 110 109 108
28 29 27 24 23 24 25 26 26 26 25 24 23 26 35 47 60 72 85 100 106 106 103 101 99 94 87 86 87 86 84 84 82 82 82 82 83 81 79 78 75 72 68 64 61 58 54 52 52 52 48 49 57 58 57 62 70 83 97 102 102 102 105 106 102 100 96 84 73 64 60 62 66 67 67 65 61 59 61 62 63 62 63 71 78 87 101 105 104 104 103 103 105 106 106 104 103
28 27 27 27 29 29 28 28 28 28 28 26 23 23 25 31 42 56 72 89 102 107 107 106 103 96 92 89 87 85 83 83 83 84 83 82 81 79 78 77 75 72 69 66 61 58 57 53 51 50 47 57 75 76 65 59 58 63 75 88 97 100 102 104 103 101 99 90 77 70 70 66 60 56 53 51 50 48 48 51 54 53 56 66 66 65 79 95 104 107 104 101 104 103 101 101 100
27 27 27 28 31 33 35 36 32 28 28 27 26 25 25 25 28 36 50 67 82 93 102 107 104 94 88 86 86 86 85 84 85 84 82 81 80 79 78 76 75 73 72 68 62 59 60 56 51 48 48 58 75 78 67 57 53 55 58 65 78 91 97 95 98 104 102 94 86 84 81 70 59 52 46 45 45 41 38 41 46 49 54 62 60 51 56 72 89 101 104 101 102 103 101 101 101
31 31 30 31 33 37 46 47 36 29 27 26 27 26 27 27 25 26 30 42 56 70 84 93 92 84 81 85 88 90 91 91 90 88 85 82 80 79 79 78 77 74 72 69 64 63 61 56 50 45 44 48 53 56 53 47 45 47 48 49 53 68 85 88 90 102 103 93 92 95 90 76 63 55 48 46 42 38 35 36 41 48 54 59 56 49 48 56 69 85 96 101 104 107 105 103 101
31 32 32 36 39 42 53 57 43 31 27 24 25 25 27 28 27 26 24 27 34 44 57 67 70 70 73 83 89 91 93 93 93 92 90 87 84 83 82 81 81 76 69 62 59 62 59 53 48 41 39 39 40 41 40 38 38 38 39 43 42 46 66 80 85 101 106 95 95 99 95 85 73 63 55 50 44 40 38 37 43 52 56 58 55 48 47 54 62 74 89 101 107 110 107 104 101
29 30 31 37 44 45 54 61 49 37 32 28 25 23 25 26 26 25 24 23 24 27 34 42 47 51 59 69 76 80 82 83 84 84 85 85 82 80 78 78 77 72 66 59 55 55 51 46 42 38 35 32 32 32 32 31 31 31 30 33 35 35 45 56 68 94 107 100 99 100 100 96 82 67 60 56 53 49 45 44 51 59 60 61 57 48 46 52 58 72 91 103 106 106 105 104 102
28 29 28 33 44 50 55 60 52 41 38 34 29 25 23 24 24 24 25 24 24 23 24 26 28 32 40 47 52 57 62 64 65 66 68 68 67 65 64 65 63 60 56 51 47 44 41 37 33 31 29 27 27 26 26 25 23 26 26 25 27 28 32 37 50 85 108 103 100 101 101 100 88 73 67 65 63 58 54 54 58 64 64 62 57 47 43 47 54 69 89 100 101 101 101 100 101
32 31 29 30 41 52 56 59 55 45 38 35 31 26 23 22 23 23 25 25 24 24 23 22 22 24 26 28 30 34 38 41 43 45 46 46 46 46 45 45 43 41 38 35 33 30 28 26 24 24 22 20 21 19 19 21 20 20 21 25 28 25 27 32 40 74 104 104 100 103 101 98 90 82 75 70 67 64 63 64 64 65 65 61 56 47 40 43 50 65 87 101 102 101 103 103 104
39 37 35 34 41 53 57 59 60 50 41 37 33 28 24 22 22 23 24 24 24 25 24 25 25 26 25 23 23 23 24 25 26 27 29 29 29 28 28 28 26 26 25 24 23 22 21 20 20 20 17 24 36 39 38 37 38 37 32 34 40 34 30 33 37 60 94 105 101 104 104 97 89 83 78 74 74 75 74 72 69 66 64 60 55 47 40 39 45 57 79 96 99 100 103 103 100
48 48 45 41 44 54 58 60 63 55 45 41 35 30 26 22 22 22 22 22 22 23 24 26 28 28 27 25 25 24 22 23 23 23 23 23 23 22 22 21 21 21 20 21 20 20 20 19 20 18 17 34 54 62 62 57 54 55 46 40 42 37 31 36 40 54 87 104 101 103 105 99 91 86 82 81 83 85 82 77 73 68 65 61 55 49 44 41 42 45 54 62 65 68 71 73 74
57 59 58 51 48 53 56 58 64 60 49 43 36 29 26 23 22 21 20 19 19 22 24 24 26 27 27 27 26 25 25 26 26 26 25 25 25 25 24 23 22 22 21 22 22 22 22 21 21 20 24 41 54 61 66 68 74 84 76 56 44 34 29 34 38 52 86 104 100 101 104 104 103 97 89 86 86 88 85 79 76 72 68 64 60 56 52 48 47 45 44 44 46 48 50 53 57
64 66 66 58 51 54 55 52 57 55 44 38 35 29 26 24 23 22 21 19 20 24 25 24 23 23 24 25 25 25 26 26 26 26 27 28 28 27 27 26 24 25 25 25 25 25 25 24 23 21 26 36 46 60 69 65 70 88 89 73 55 37 30 34 30 45 85 103 100 102 102 105 109 103 95 90 88 91 89 85 82 78 72 67 66 65 61 56 53 51 49 48 51 53 54 55 57
70 71 69 61 54 57 57 50 48 43 35 35 35 30 26 25 23 23 23 24 26 27 26 24 23 22 21 22 22 22 23 23 24 25 26 28 28 28 28 27 26 27 27 27 27 28 27 26 26 26 32 40 51 73 87 78 69 71 66 57 49 36 33 37 28 40 84 103 100 102 101 103 108 105 99 94 92 94 93 90 85 79 74 69 68 69 68 63 59 58 55 53 54 54 54 55 55
74 72 66 59 55 54 53 47 38 34 37 41 37 29 25 23 23 25 27 28 27 25 24 25 25 23 22 21 20 20 20 21 22 23 24 25 25 26 26 26 27 27 28 29 29 30 30 28 28 31 43 61 80 98 104 101 98 93 79 64 55 47 41 36 24 40 85 104 100 102 102 104 107 105 102 98 96 97 96 92 85 78 72 69 69 70 70 68 62 60 58 54 54 53 53 54 55
71 70 63 55 51 50 48 40 32 34 42 41 33 27 23 22 26 27 27 28 27 26 29 30 27 25 23 21 20 19 19 19 20 20 22 22 22 24 24 24 26 26 27 29 29 32 33 30 29 31 39 51 72 92 98 101 99 93 91 87 77 65 49 38 37 59 94 106 102 102 102 103 104 103 104 102 100 99 95 89 82 77 72 70 70 67 66 67 62 58 55 53 54 54 54 54 54
64 67 63 54 48 47 43 37 33 37 40 33 27 25 22 23 27 27 28 33 34 32 32 28 24 23 22 21 21 22 22 22 22 24 26 25 22 20 21 22 24 25 25 27 29 32 33 33 30 32 46 61 80 97 97 87 70 59 72 88 88 79 69 68 78 91 103 105 103 102 101 102 103 102 104 102 101 99 95 92 88 80 73 69 66 62 63 66 60 53 51 53 55 53 51 49 47
79 79 70 58 53 52 48 41 38 36 33 28 26 23 21 23 27 30 37 43 41 36 30 25 24 24 24 26 28 29 29 27 26 28 30 29 26 23 21 20 21 23 24 26 28 31 34 36 31 30 43 63 83 93 79 55 42 49 72 91 95 95 94 97 101 102 102 102 102 101 101 103 102 104 106 103 102 103 101 99 93 81 72 69 68 68 69 64 54 49 49 52 51 47 45 43 42
91 89 75 61 58 59 56 49 43 38 32 30 29 25 24 27 28 33 42 43 38 36 33 30 30 31 32 35 36 34 31 29 27 26 26 27 27 24 23 23 22 23 24 26 28 31 35 37 35 34 35 38 53 71 72 64 64 78 94 100 101 103 102 102 101 101 101 101 101 100 101 103 102 105 107 102 103 107 106 101 94 85 79 78 79 77 69 58 49 48 50 49 47 43 42 42 43
91 85 73 69 72 70 62 53 46 40 35 33 36 34 31 32 31 32 37 35 31 34 37 37 37 37 41 44 42 37 33 31 28 26 29 37 38 29 22 24 28 30 29 27 28 31 36 39 37 37 45 58 74 87 93 96 98 101 104 102 101 102 101 101 101 100 101 102 101 101 102 103 102 103 103 101 105 109 107 102 97 91 86 84 82 74 62 53 51 51 50 48 45 44 45 46 48
99 88 80 82 84 75 65 57 49 42 35 33 39 41 37 36 34 32 31 29 30 35 38 39 38 42 53 56 47 38 33 30 29 28 32 41 44 36 27 24 29 35 33 28 28 31 37 41 39 44 66 91 102 103 103 107 109 107 107 104 102 103 101 101 102 101 102 103 102 102 102 101 101 101 100 101 108 109 103 99 97 92 87 82 74 63 55 54 54 53 52 49 48 49 50 51 51
101 99 98 99 89 75 69 62 53 47 39 36 42 45 40 35 34 34 31 30 36 42 45 42 43 59 74 65 44 33 30 30 32 33 32 32 33 33 30 26 27 33 35 29 27 33 39 41 40 53 84 101 101 103 107 109 108 106 108 107 103 103 102 101 103 102 101 102 101 101 101 101 102 103 101 104 109 107 100 97 93 85 78 69 59 54 55 57 57 56 54 52 51 53 53 52 50
93 94 95 95 85 79 79 72 63 57 48 44 48 50 45 40 40 38 35 35 40 47 50 47 53 77 83 58 34 29 30 33 35 35 35 32 29 28 27 25 25 28 33 32 29 33 41 44 42 56 86 97 92 100 107 105 102 102 105 106 102 101 102 100 101 101 101 101 102 103 104 105 104 102 101 101 99 93 87 81 73 65 60 55 52 55 59 60 59 58 56 54 54 55 53 50 48
94 89 85 82 77 83 89 82 76 71 60 53 51 52 54 50 45 42 39 39 42 50 56 53 61 80 75 47 33 32 32 35 36 35 36 35 31 29 27 26 24 23 27 29 31 36 42 46 45 52 77 90 88 95 104 103 101 101 102 102 100 100 101 100 100 101 101 101 102 105 106 106 105 100 95 89 81 73 67 61 56 55 55 54 54 56 59 58 59 59 57 56 56 55 51 48 46
104 102 99 96 93 97 97 89 84 79 70 63 55 56 61 56 47 44 44 42 44 56 63 58 66 80 70 48 39 37 36 38 39 40 41 38 34 33 30 28 26 24 25 26 29 37 45 48 47 47 62 78 81 87 100 103 99 100 103 102 101 100 100 100 101 100 101 102 103 103 103 103 101 92 82 74 68 63 58 56 56 57 56 54 53 54 55 56 58 59 58 56 55 53 49 47 47
Wind_Speed
59 57 56 55 54 55 57 57 58 58 58 58 57 56 54 53 53 50 49 49 50 50 50 50 47 45 46 45 43 43 41 39 40 40 39 38 37 38 41 45 47 47 46 45 44 42 41 40 39 38 37 36 36 36 36 36 36 36 37 39 40 41 41 40 40 40 39 37 35 33 31 30 30 31 30 30 29 29 28 28 28 27 27 26 25 24 23 22 21 21 21 21 21 20 20 20 20
64 61 59 57 56 56 57 57 58 59 60 60 60 60 58 55 53 51 50 50 51 51 52 50 47 46 46 44 43 42 41 40 41 40 39 38 38 40 44 47 48 48 47 46 44 42 41 41 40 39 39 38 38 37 37 37 37 37 38 39 40 41 40 39 38 37 36 35 32 30 30 30 30 30 30 29 29 28 28 28 27 27 26 26 25 24 23 22 21 20 20 21 21 20 20 20 20
68 66 63 62 59 58 58 57 57 58 59 61 61 62 62 60 55 52 51 51 52 53 53 51 48 47 45 43 43 43 41 42 43 42 40 39 41 45 48 49 49 49 49 47 44 43 42 41 40 40 40 40 39 38 39 39 38 38 38 39 40 40 38 36 36 35 34 33 31 29 29 30 30 30 30 29 28 28 27 27 27 26 25 25 25 24 23 22 21 20 20 21 21 20 20 20 20
70 69 67 65 63 62 62 60 60 59 59 60 61 61 61 61 58 55 53 52 53 54 54 52 50 48 46 44 44 45 44 45 45 43 42 43 46 50 51 51 52 52 50 46 44 43 42 41 41 41 41 41 40 39 40 39 39 38 38 39 39 37 35 35 34 34 33 32 30 29 29 30 30 30 30 29 28 27 27 26 26 25 25 25 25 24 23 22 21 20 20 20 20 20 20 20 20
70 71 71 70 67 65 65 65 64 63 63 62 62 62 61 60 57 56 54 53 54 55 55 53 51 48 47 45 45 46 47 48 46 46 46 49 52 53 53 55 56 53 49 45 44 43 42 41 41 42 42 41 40 40 40 40 39 38 38 38 37 36 35 34 34 34 33 31 30 29 30 30 30 30 30 28 28 27 26 26 26 25 25 24 24 24 23 22 21 20 20 20 20 19 19 19 18
68 70 72 75 74 69 67 69 69 64 65 67 67 67 65 63 59 55 55 54 54 55 56 55 52 49 47 45 45 46 47 48 48 48 51 54 55 55 56 58 57 51 47 45 43 42 42 42 42 42 41 41 40 40 40 40 39 38 38 37 36 35 34 34 34 33 32 31 30 30 30 30 30 31 30 28 27 27 26 26 26 25 25 24 24 23 23 22 21 20 19 19 19 19 18 17 16
69 69 69 73 75 74 71 71 73 68 66 69 70 71 70 70 65 59 57 57 56 54 54 55 53 50 48 45 45 46 49 51 51 53 56 57 58 58 60 59 54 48 46 44 43 42 42 42 42 41 41 40 40 41 40 39 39 38 37 36 35 34 34 34 34 34 33 32 30 30 30 30 31 30 29 28 27 27 26 26 26 25 25 24 23 23 22 21 20 19 19 19 19 19 18 15 13
70 69 69 70 73 75 74 74 76 73 69 69 70 71 71 72 70 66 63 60 58 57 54 54 53 51 50 49 49 51 53 56 57 57 59 59 59 60 61 57 50 47 45 44 43 42 42 42 41 41 41 40 40 40 40 39 38 37 36 35 34 33 33 34 34 34 33 32 30 30 30 30 30 30 29 28 28 27 27 26 26 25 25 24 23 23 22 21 20 20 19 19 19 18 15 12 9
72 71 69 70 71 72 74 75 76 75 72 71 71 71 71 72 71 69 68 64 61 59 57 55 55 55 56 56 58 58 57 59 61 61 60 59 60 61 60 54 49 47 45 43 42 41 41 41 41 41 41 40 40 39 39 38 37 36 36 35 34 33 33 34 34 34 32 31 30 30 30 31 30 30 29 29 28 28 27 27 26 26 25 24 23 23 22 21 20 20 19 19 18 15 11 9 9
73 73 71 70 70 70 71 72 74 75 74 72 72 71 71 73 72 69 69 68 65 62 59 57 58 60 60 60 63 62 60 60 62 63 61 60 61 61 58 53 49 46 44 42 41 41 41 41 41 41 41 40 39 38 38 38 37 36 36 35 34 34 34 34 34 33 31 30 30 30 31 32 31 31 30 30 30 29 28 28 27 27 26 25 24 23 22 21 20 19 18 18 15 12 10 9 10
74 73 73 72 70 68 68 69 71 72 73 72 71 71 72 73 71 70 70 69 66 65 63 61 61 63 63 64 65 64 62 63 64 66 64 62 62 60 56 52 48 46 43 42 41 41 41 41 41 41 41 40 39 38 38 38 37 36 36 36 35 35 34 33 33 31 30 30 30 31 32 32 32 31 31 31 31 30 29 29 28 27 27 25 24 23 23 22 20 18 17 16 14 12 11 11 11
75 74 73 73 70 68 67 68 69 70 71 70 70 72 74 73 70 71 72 68 64 63 64 63 62 63 64 66 67 67 66 66 67 67 66 64 61 57 54 50 47 45 44 42 42 42 41 41 41 41 40 39 38 38 38 38 36 35 35 34 34 34 34 33 31 30 30 31 31 32 32 32 31 31 31 31 31 31 30 30 29 28 27 26 25 24 23 21 20 18 16 16 14 14 13 12 12
74 74 74 72 70 68 67 67 68 69 69 68 69 72 73 72 70 71 70 67 64 60 60 60 59 60 61 63 65 65 65 65 65 64 63 62 58 54 50 48 46 45 44 43 43 42 42 42 41 40 39 38 38 37 37 37 35 34 33 33 34 34 33 31 30 30 30 31 32 32 32 31 31 30 31 31 31 31 30 29 29 29 28 27 25 24 23 21 19 18 17 16 16 15 15 14 14
73 73 74 71 69 68 67 65 66 67 67 67 69 71 72 71 69 70 68 67 65 61 58 57 57 57 57 58 59 58 58 59 60 59 58 57 54 50 48 47 45 44 43 43 43 42 42 41 40 39 38 37 37 37 37 36 34 31 30 31 33 33 31 30 29 30 30 32 33 32 31 30 30 30 30 29 28 29 29 29 29 28 28 27 26 25 23 21 19 18 17 17 17 16 16 16 16
73 73 72 70 67 67 66 64 64 64 65 67 69 71 71 69 69 68 67 66 65 61 57 56 55 55 55 55 54 53 54 56 55 55 53 52 50 48 47 46 44 43 43 43 42 42 42 41 39 38 37 37 37 37 37 34 32 29 29 30 32 31 29 28 28 29 31 32 32 31 30 29 29 29 28 27 27 28 29 30 30 29 28 27 26 25 23 21 19 18 18 18 18 17 17 17 17
73 73 71 67 64 63 63 63 63 62 63 67 70 72 69 67 68 67 66 65 64 61 58 56 54 53 54 53 51 52 53 53 52 52 50 49 48 47 45 44 43 43 43 42 42 42 41 40 39 37 37 37 37 37 36 33 30 27 27 29 29 27 26 26 27 29 31 32 31 30 29 28 28 28 28 27 28 28 29 30 31 31 29 27 26 25 23 22 20 19 18 18 18 18 18 19 18
74 73 69 64 61 61 61 62 62 62 63 67 70 70 66 66 67 66 65 63 62 61 57 55 54 53 53 51 50 50 51 50 50 50 49 47 47 46 44 43 42 42 42 42 42 42 41 40 39 37 37 37 38 37 34 30 27 25 26 28 27 22 22 24 26 28 30 29 29 28 28 28 28 28 28 27 27 27 27 27 28 29 29 27 26 24 24 23 21 19 19 18 18 18 19 19 17
74 71 67 62 60 60 60 61 62 63 64 67 69 68 65 65 67 65 63 62 60 59 57 55 53 52 52 50 48 49 49 49 50 50 49 47 46 45 43 42 42 42 42 42 42 42 42 41 40 38 38 38 39 37 32 28 26 25 25 28 25 18 19 22 25 27 27 27 27 26 27 28 29 28 26 25 25 25 24 23 24 26 27 27 25 24 24 23 21 20 19 18 18 18 18 18 16
73 71 66 61 59 60 61 62 63 64 65 67 68 67 65 65 66 64 61 60 59 56 55 54 52 51 51 49 48 49 50 50 50 50 48 46 46 45 43 42 41 41 41 41 41 42 42 41 40 39 39 40 40 37 32 28 26 25 23 26 23 16 17 21 23 24 24 25 25 25 26 27 27 25 22 21 23 24 23 23 23 24 25 25 25 25 24 23 22 21 20 19 18 18 18 17 15
73 71 66 61 61 62 62 63 63 64 66 67 68 66 64 64 65 63 60 59 57 55 54 52 51 51 51 49 49 49 50 50 49 48 46 45 45 44 43 42 41 40 39 38 38 39 39 40 40 40 41 41 40 37 33 28 25 24 22 24 22 18 18 19 19 21 22 23 24 25 25 25 24 21 20 20 22 24 25 26 26 26 25 25 25 25 25 23 22 22 21 20 19 19 19 18 18
73 70 65 63 64 64 63 64 64 65 66 66 67 65 64 64 64 61 60 58 56 55 54 52 51 51 51 50 50 49 49 49 48 47 45 45 45 44 43 42 41 40 38 36 35 33 32 35 38 39 40 41 40 37 34 29 26 24 22 22 22 20 18 16 16 18 21 23 25 25 24 24 23 22 23 23 24 26 28 29 30 32 30 27 25 24 24 24 23 23 23 22 21 21 21 21 22
73 70 66 65 66 66 65 66 66 66 66 66 66 65 65 65 62 60 59 57 55 55 53 51 51 51 51 50 50 50 49 49 48 47 45 45 44 44 43 43 41 40 38 36 33 30 31 34 36 37 38 39 38 37 35 31 29 27 25 23 23 21 17 13 14 17 19 22 25 26 25 25 24 25 26 26 27 29 31 33 34 35 35 31 27 25 23 23 23 23 24 24 24 24 25 26 28
75 71 68 66 67 67 68 68 68 68 67 66 66 66 66 64 60 60 59 56 54 53 52 51 51 51 51 51 51 50 49 49 49 47 45 45 45 45 45 44 42 41 39 35 32 32 35 35 36 36 37 37 36 35 34 32 30 30 28 26 26 23 18 15 17 19 21 23 25 27 26 26 26 27 28 29 30 32 34 34 35 36 36 35 31 27 24 22 23 24 25 26 27 28 29 31 34
76 72 70 68 67 68 69 70 70 70 68 68 67 67 66 64 61 60 57 54 53 53 51 51 51 51 51 51 51 49 49 49 48 47 46 46 47 46 46 45 43 42 40 37 35 36 36 35 35 35 35 35 35 34 34 33 32 32 31 28 28 26 23 23 25 25 27 28 27 27 27 27 28 28 30 31 32 33 34 34 34 35 36 36 33 28 24 23 23 25 27 28 29 30 32 35 37
77 74 72 71 69 69 70 71 71 71 70 70 69 66 66 65 63 60 56 54 53 52 51 51 51 51 52 53 51 50 49 49 48 48 47 47 47 47 47 46 44 43 42 40 40 40 38 37 36 35 34 33 32 32 32 34 34 33 32 30 30 29 28 29 30 29 31 33 31 28 28 28 29 31 32 34 34 34 34 34 34 35 36 37 35 31 28 26 28 30 31 31 31 33 35 38 39
77 75 75 74 72 71 71 72 72 72 72 71 69 66 67 67 63 60 56 55 54 52 51 52 52 52 53 54 53 51 50 50 49 49 49 47 47 46 46 46 45 45 44 43 43 43 42 41 40 38 36 33 32 34 33 33 33 32 32 31 32 33 33 33 32 32 32 35 35 33 31 30 31 33 34 36 37 36 36 36 36 37 39 38 37 35 34 34 37 37 36 35 36 37 39 40 40
77 76 77 76 74 73 73 73 73 73 72 70 68 67 68 67 64 60 56 55 54 52 51 51 52 53 54 55 54 53 52 52 51 51 49 47 46 46 46 46 47 47 47 45 44 44 44 43 43 42 39 37 37 39 38 36 35 33 31 32 33 36 37 36 36 35 35 37 38 37 37 36 34 35 36 37 38 37 36 38 39 41 42 41 39 39 39 40 41 40 40 39 40 41 41 41 42
78 77 76 76 75 74 74 73 73 73 71 69 69 69 68 66 63 60 58 57 55 53 52 51 51 53 55 56 55 54 53 53 53 50 47 46 46 46 48 49 49 49 48 46 45 46 46 44 45 45 43 41 41 42 41 38 36 35 33 34 35 37 39 38 38 37 37 38 39 40 42 42 39 37 36 36 36 36 37 40 42 43 44 44 43 42 43 43 43 42 42 41 41 41 42 43 44
77 76 75 75 75 74 73 73 74 74 72 71 71 70 66 63 62 61 60 59 57 55 53 52 52 53 56 57 55 54 54 54 51 48 47 48 48 48 50 51 50 50 49 48 47 48 49 48 47 47 45 43 42 43 42 39 37 36 36 36 36 37 38 38 37 38 39 40 41 43 45 45 43 37 33 33 34 36 38 40 42 43 45 45 45 44 44 44 44 43 43 43 43 43 44 45 47
75 75 74 74 74 72 72 74 76 75 73 73 73 69 64 63 63 63 62 60 58 58 56 54 53 55 58 59 56 55 55 54 51 49 50 50 50 50 51 51 51 51 50 50 50 50 51 50 50 50 49 47 45 44 44 43 40 36 35 36 37 37 37 37 37 38 39 41 43 45 46 47 44 37 33 33 34 37 39 40 42 43 44 45 45 45 45 45 45 46 45 44 45 46 47 48 50
74 74 73 72 72 70 72 75 76 75 73 74 74 68 65 65 65 64 62 61 60 59 58 58 57 58 62 61 58 57 56 53 51 50 52 51 50 50 51 51 52 53 52 52 52 53 52 52 51 51 51 50 49 48 48 47 44 40 37 36 37 39 39 38 38 38 40 41 42 44 46 46 43 38 35 34 36 38 40 42 42 43 44 44 45 45 47 47 48 48 47 46 48 50 51 53 55
73 72 69 68 68 68 71 74 74 74 75 76 74 68 66 67 65 64 63 61 61 60 59 60 60 61 64 64 60 58 57 54 53 53 53 51 51 51 52 53 54 54 54 54 54 55 54 53 53 54 54 52 52 51 51 50 47 44 41 39 39 40 41 41 40 40 40 41 42 43 44 44 42 39 37 36 37 39 41 43 43 44 45 45 45 46 48 49 50 50 50 50 52 54 56 56 58
72 68 65 65 65 66 70 73 73 74 76 76 73 68 67 68 67 66 64 62 61 60 60 62 62 63 66 65 61 59 58 56 56 55 54 53 53 53 53 54 55 56 56 56 56 56 56 55 54 55 55 54 54 54 54 53 50 47 45 43 41 41 41 41 41 42 42 42 42 42 43 43 42 40 39 38 39 40 42 43 45 46 47 47 46 47 48 50 52 53 54 55 56 57 58 58 59
68 64 62 63 64 65 68 71 72 74 75 74 71 67 67 69 68 67 66 64 63 62 63 63 64 65 66 64 61 60 59 58 58 56 55 55 55 55 55 56 57 57 57 57 57 57 57 56 55 55 55 55 56 57 56 55 53 50 49 47 44 42 41 42 42 42 43 43 43 43 43 42 41 41 41 41 41 42 43 44 46 48 49 48 47 47 49 50 52 55 56 58 58 59 60 60 60
66 64 62 63 64 63 65 69 70 72 73 73 71 68 68 69 69 67 66 64 64 65 66 66 65 66 65 63 61 60 59 58 58 57 57 57 57 57 57 58 58 58 58 58 58 58 58 57 57 56 55 55 55 56 58 56 55 53 51 51 48 45 43 43 43 43 44 45 45 45 43 42 41 42 43 44 45 45 46 46 47 49 49 50 49 49 50 51 53 54 55 57 58 58 58 58 59
70 69 66 65 65 63 65 68 69 70 72 71 70 68 68 70 70 68 67 66 67 68 67 67 66 65 63 62 61 60 59 58 57 57 57 57 58 58 58 59 59 59 59 58 58 60 59 58 58 56 54 52 50 53 57 57 56 55 53 52 51 49 46 44 45 45 46 46 46 45 43 43 43 45 46 47 48 48 48 48 48 49 50 50 51 51 51 53 53 54 54 54 55 55 56 56 57
75 73 70 68 66 65 66 69 70 70 70 70 69 68 68 70 70 70 69 68 69 68 68 68 68 66 63 62 61 60 60 59 58 58 58 58 58 58 59 60 60 60 60 59 59 61 60 58 58 56 54 53 52 54 57 58 58 56 54 53 52 51 50 48 47 47 47 47 46 44 44 44 45 46 48 49 50 50 50 50 49 49 49 50 52 52 52 52 53 54 54 54 54 55 55 56 57
78 76 73 71 68 66 67 71 72 71 70 70 69 67 67 68 69 69 69 69 69 69 69 69 68 65 62 61 62 61 61 60 60 59 59 59 59 59 60 60 61 61 60 60 61 62 61 59 59 57 56 57 57 58 59 59 59 58 56 54 52 52 52 51 50 49 48 47 46 45 45 46 47 48 49 50 51 52 52 52 52 50 49 50 52 53 53 52 53 53 54 55 56 57 57 58 59
79 78 75 72 71 69 69 71 72 71 70 69 68 66 66 67 68 68 68 68 69 69 69 69 67 64 61 62 63 63 62 62 61 61 60 60 60 60 61 61 61 60 58 59 62 62 61 59 58 57 57 58 59 60 60 59 59 59 57 55 54 53 53 53 51 50 48 47 46 46 46 47 48 50 51 52 53 53 54 54 53 51 50 51 52 53 53 53 54 54 55 56 57 57 57 58 59
79 78 76 73 72 71 71 72 72 69 68 69 68 67 66 66 67 66 65 66 67 67 67 67 66 62 62 63 63 63 63 62 62 61 60 60 61 61 61 61 61 59 58 60 62 61 60 59 58 57 57 58 59 60 61 60 60 59 58 56 55 54 53 53 52 49 47 47 46 47 47 48 49 51 53 53 53 53 53 53 52 51 51 52 53 54 54 54 54 55 55 56 56 57 57 58 59
79 78 76 74 73 73 73 74 73 70 69 68 67 66 65 64 63 62 63 64 65 64 64 65 63 61 63 64 64 64 63 63 62 61 61 61 61 60 60 60 60 60 60 60 61 60 59 59 58 58 58 59 60 61 62 62 60 59 58 57 56 55 54 53 52 50 48 47 47 47 47 48 49 51 52 52 52 52 52 52 52 52 52 53 54 54 54 54 54 55 56 56 56 57 58 59 60
78 78 76 74 74 74 75 76 75 72 70 68 68 66 63 61 60 60 61 61 61 61 61 61 59 59 62 64 63 62 62 63 62 62 62 62 61 60 60 60 60 60 60 60 60 59 59 59 58 58 58 58 59 61 62 61 59 58 57 56 55 55 54 52 51 50 48 47 47 48 48 49 50 50 51 52 52 52 52 52 52 52 52 53 53 53 53 53 54 55 56 57 57 58 59 61 63
78 77 76 74 74 74 76 77 76 73 70 68 68 65 61 60 58 58 59 59 59 58 57 56 55 56 59 60 60 60 61 61 61 61 61 61 60 59 59 59 59 59 59 58 58 57 56 56 55 55 53 52 55 57 56 54 54 53 53 52 52 51 51 51 51 50 49 49 49 49 49 49 50 51 51 52 51 51 51 51 51 51 51 52 52 52 52 52 53 54 56 58 59 61 62 64 65
78 77 76 75 73 74 76 78 77 74 71 69 67 64 61 59 57 57 59 59 57 55 53 52 53 55 56 57 57 58 58 57 57 58 58 57 57 56 56 56 55 55 55 55 54 52 51 51 50 49 46 46 50 52 52 51 52 52 52 51 50 50 49 49 50 50 50 50 50 49 49 49 50 50 50 50 50 50 49 49 49 49 50 51 51 51 51 51 52 53 55 58 60 61 63 64 65
80 79 78 76 75 76 77 78 77 75 72 69 66 62 59 56 55 57 57 57 54 51 51 52 54 55 56 56 56 55 54 54 54 54 53 53 53 52 52 51 51 51 51 50 48 46 45 44 44 42 41 43 47 49 50 50 49 50 50 49 50 50 50 49 50 50 50 49 49 49 49 49 49 49 49 49 49 48 47 47 47 48 49 50 50 51 51 51 52 54 56 58 59 61 62 64 65
83 82 81 79 78 77 77 78 77 76 73 67 64 61 57 54 55 55 54 52 49 48 50 52 55 56 56 56 54 53 52 52 52 51 50 51 50 50 49 48 48 47 47 46 44 42 41 40 39 38 39 42 42 43 46 49 49 49 50 50 49 49 49 50 50 50 50 49 49 49 48 48 48 47 47 47 47 46 46 46 47 48 49 50 52 52 53 54 55 57 59 59 60 61 63 64 65
86 85 84 82 80 78 77 76 75 74 70 63 62 61 58 55 55 54 51 48 47 48 52 54 55 55 55 55 54 52 51 51 51 50 50 51 50 50 49 47 46 45 45 43 41 40 39 38 36 34 38 42 40 37 38 43 47 49 52 52 51 49 49 49 50 51 51 50 49 49 48 47 47 47 47 47 47 47 47 47 48 50 52 53 55 55 56 57 58 59 60 60 61 62 63 64 65
88 87 86 84 81 79 77 75 74 71 63 60 61 62 60 56 54 52 50 49 49 50 53 53 53 53 53 53 52 51 51 50 50 51 51 51 52 51 50 48 46 45 44 43 41 40 39 38 34 33 37 40 40 37 35 38 44 46 48 48 48 48 48 48 50 50 51 50 49 48 47 47 47 47 47 47 47 48 48 49 51 52 54 56 56 57 58 59 59 60 61 61 62 63 63 64 64
88 87 86 84 81 78 76 73 70 63 57 59 63 64 61 55 51 52 51 50 51 51 52 52 51 50 50 50 50 49 49 49 50 51 51 52 53 52 50 48 47 46 45 43 42 40 39 38 34 34 37 40 41 42 41 43 48 47 45 44 44 45 45 47 48 49 50 49 48 47 46 46 46 46 47 47 48 48 49 51 52 54 56 57 58 59 60 61 62 62 62 63 63 63 62 62 63
84 84 84 81 78 75 72 68 63 58 57 62 65 65 61 54 51 53 51 50 51 51 52 52 50 48 47 46 46 46 47 49 50 50 51 52 53 52 51 49 48 47 45 44 43 41 40 39 36 35 36 37 37 40 45 49 51 49 46 43 42 43 43 44 45 46 46 46 46 45 45 45 46 46 47 47 48 49 50 51 53 55 57 60 61 63 64 64 64 64 64 64 63 62 61 61 62
82 82 82 79 74 70 66 63 60 57 58 62 63 62 57 50 50 51 51 51 51 52 53 51 47 45 43 42 42 44 47 48 49 49 50 50 51 51 51 49 48 47 46 45 43 43 41 40 39 37 35 35 37 41 46 49 48 46 43 41 40 40 40 41 42 42 43 43 43 43 44 45 46 47 48 49 50 50 51 53 56 58 61 63 64 65 65 65 65 65 64 63 61 60 60 61 62
83 84 83 77 71 69 66 63 60 58 58 60 60 58 52 47 49 51 51 52 50 50 50 47 44 42 41 41 44 46 47 47 47 48 47 48 49 50 50 49 48 47 46 45 44 43 42 41 40 38 37 39 42 44 45 45 42 40 38 37 36 37 38 39 40 41 42 42 43 44 45 46 47 49 50 50 51 52 54 56 59 61 62 64 64 64 65 65 65 64 62 61 60 60 60 61 61
83 84 80 73 70 70 67 64 61 59 60 59 56 53 48 46 48 50 51 51 49 48 47 45 43 42 41 44 46 47 46 45 45 45 45 45 46 47 49 49 48 47 46 45 44 43 43 42 40 39 38 39 41 41 41 40 39 37 36 36 36 37 38 39 41 42 42 43 44 45 47 48 48 49 50 51 52 54 56 58 60 61 62 63 64 65 65 65 64 62 61 60 60 60 61 61 62
83 81 76 73 73 71 66 64 62 60 60 58 53 50 47 45 45 47 50 51 48 47 47 45 43 42 44 47 48 47 45 43 43 43 43 44 45 46 47 48 48 47 46 45 45 44 43 42 40 39 39 39 39 39 39 39 38 37 37 37 38 39 40 41 42 43 44 44 45 46 47 48 48 49 50 52 54 56 58 60 61 62 63 64 65 66 65 64 62 61 60 60 60 61 62 63 65
83 81 78 76 74 70 65 64 61 60 59 55 50 48 46 44 44 46 49 50 48 46 46 44 43 44 47 51 50 47 44 42 42 42 43 44 45 45 45 46 47 47 46 45 45 44 43 42 41 39 39 39 39 39 39 38 38 38 38 38 39 40 41 42 43 44 45 45 46 46 47 48 49 50 52 54 56 58 59 60 61 63 64 65 66 65 64 62 61 61 61 61 62 63 64 65 67
83 82 79 76 72 68 65 64 61 59 58 53 49 47 43 41 42 44 48 50 49 46 45 44 45 47 52 53 50 46 43 42 41 41 42 43 44 44 44 45 46 46 46 46 45 44 44 43 41 40 40 39 39 39 39 38 37 37 38 39 40 42 43 44 45 46 47 47 48 48 48 49 51 52 54 56 57 59 60 61 63 64 65 65 64 63 62 62 62 62 62 62 63 64 65 67 68
80 78 75 72 69 67 66 64 62 59 57 53 50 46 41 40 41 43 47 50 49 46 45 46 48 51 54 53 48 44 42 42 41 40 40 41 42 43 44 44 44 45 45 45 45 45 44 44 43 42 41 40 39 39 39 39 38 39 40 40 42 43 44 46 47 48 49 49 50 50 50 51 53 54 55 57 58 60 61 62 63 64 64 64 64 63 63 63 62 63 63 63 64 65 67 68 68
80 76 72 70 68 66 65 63 60 58 56 53 50 45 42 42 42 43 47 51 49 47 46 47 49 52 53 50 46 44 43 41 40 39 40 41 42 43 43 44 44 44 45 45 45 45 45 45 44 43 42 41 40 40 40 40 40 41 42 43 44 45 46 48 48 49 50 50 51 52 53 54 55 56 58 59 60 61 62 63 64 64 64 64 64 64 63 63 62 62 63 63 65 66 67 68 68
Wind_Direction
231 233 237 238 239 242 243 243 243 243 245 245 245 244 245 245 244 242 242 245 247 248 249 251 253 255 260 266 268 270 270 267 268 269 271 273 274 278 285 293 299 303 304 305 306 307 309 310 310 310 311 312 312 311 311 309 307 308 310 312 313 313 313 314 315 316 316 316 318 319 320 321 322 324 326 327 326 325 325 325 324 324 323 322 321 319 317 314 311 307 305 302 300 299 298 297 297
231 231 234 235 235 237 242 244 244 244 245 246 246 245 244 244 244 242 242 244 246 247 249 250 252 255 259 264 265 266 265 263 263 264 267 268 271 280 287 293 298 300 302 303 304 304 306 307 308 309 309 310 310 310 310 309 308 308 310 312 314 314 315 315 316 318 318 318 320 320 320 320 321 323 324 324 324 324 324 324 323 322 321 321 320 319 317 314 310 307 304 303 301 300 298 297 296
231 232 232 232 232 232 236 242 244 244 245 247 248 247 246 244 243 242 243 244 245 247 249 251 252 256 261 262 261 261 260 260 260 262 262 263 271 281 287 291 295 298 299 300 301 302 304 305 306 307 307 308 308 308 308 308 307 308 311 314 316 317 317 318 319 321 320 320 321 320 319 319 320 321 321 322 323 323 323 323 322 320 320 320 319 318 316 313 309 306 304 303 302 301 299 298 297
230 232 232 230 230 230 232 238 244 245 244 246 248 248 248 246 245 244 244 243 245 246 249 251 252 256 261 259 257 257 256 257 259 260 260 265 273 280 286 291 295 296 296 298 299 301 303 303 304 304 306 307 306 306 307 306 307 309 312 315 317 319 320 321 323 324 321 319 319 318 318 318 318 318 319 321 322 322 322 321 319 319 319 319 319 318 316 313 310 307 305 305 303 302 301 300 299
232 231 230 229 228 229 231 235 242 246 245 245 247 247 247 247 246 246 245 243 245 247 248 250 252 255 259 257 255 254 253 254 258 260 264 270 275 281 288 292 295 295 294 296 298 299 300 300 301 303 305 305 305 305 305 305 307 310 313 315 317 319 322 325 325 323 319 317 317 316 316 316 316 316 318 319 320 320 320 319 318 318 318 319 318 317 315 312 310 308 307 306 304 304 303 303 304
235 233 231 231 230 229 230 234 240 245 247 248 249 248 247 248 247 245 245 244 244 246 247 248 251 252 254 254 253 253 253 254 257 262 267 272 278 284 288 291 293 293 293 294 295 296 297 297 299 301 303 304 305 305 304 305 308 311 313 314 316 319 323 325 323 320 317 315 314 313 314 314 314 315 315 317 317 318 318 317 317 317 317 318 317 316 313 311 309 308 307 305 304 304 303 305 309
235 235 233 233 232 231 230 233 239 243 245 249 251 252 252 252 250 247 245 245 244 244 245 247 249 249 249 250 249 250 253 256 259 263 269 275 280 283 286 289 291 291 291 292 292 293 294 295 298 300 302 304 304 303 304 306 309 310 311 312 315 318 322 322 320 316 314 313 311 309 311 311 312 312 313 314 314 315 315 316 316 316 316 316 315 313 311 309 308 308 307 305 304 303 303 306 312
235 235 234 235 233 233 233 235 240 244 245 247 250 253 255 256 254 250 246 243 243 243 244 246 247 246 247 247 247 249 252 257 261 264 270 276 279 281 284 287 287 288 289 289 290 290 292 294 296 299 301 303 302 302 304 306 307 308 309 311 314 317 320 319 317 314 311 309 307 306 308 308 308 309 310 311 312 313 314 314 314 314 313 313 312 310 308 307 307 308 307 307 305 304 305 308 314
236 235 234 235 235 234 235 237 241 245 246 247 249 251 254 256 255 252 247 243 242 243 243 245 246 246 247 248 250 252 255 259 262 266 271 274 277 281 283 284 285 285 286 286 287 288 290 293 295 299 301 301 301 301 302 304 305 307 309 310 313 316 318 317 315 312 308 305 303 305 306 305 306 308 309 309 309 311 311 311 311 311 311 310 309 307 306 306 307 308 308 308 307 308 309 309 317
236 236 235 235 235 235 236 237 240 243 246 247 249 251 252 254 255 254 251 245 242 242 243 244 247 248 249 250 252 255 259 262 265 268 270 273 278 281 282 283 283 283 283 284 284 286 289 292 295 299 300 300 299 299 300 302 305 308 309 311 314 316 316 314 312 309 305 302 303 305 306 306 307 309 309 308 308 309 308 308 308 308 308 307 306 306 306 306 307 307 309 308 307 309 308 311 320
237 237 236 236 235 236 236 237 239 242 245 247 249 252 252 252 254 255 254 250 245 244 246 247 248 250 251 252 255 257 262 265 266 269 271 274 278 279 280 281 281 281 281 281 283 285 288 292 295 298 298 298 297 298 301 304 307 309 311 314 315 314 313 311 310 306 302 302 304 307 307 307 308 308 308 307 307 307 307 306 305 305 305 304 304 305 305 306 306 306 308 305 303 306 308 313 322
237 237 237 236 236 236 237 237 239 242 244 247 250 252 252 252 252 253 255 254 251 248 249 251 251 251 251 253 258 262 265 268 268 270 272 274 277 277 278 278 278 279 280 281 283 285 288 292 295 297 297 296 297 299 302 305 307 309 312 314 313 311 310 309 308 304 301 303 306 307 307 306 307 307 306 306 306 306 306 304 303 302 302 302 303 304 304 305 305 304 304 300 300 305 308 312 319
237 237 237 236 236 236 237 238 239 241 244 247 249 252 252 252 251 252 254 255 255 252 252 253 254 254 253 255 259 263 266 268 268 269 270 273 274 275 275 275 276 277 279 281 283 286 290 293 296 296 295 294 296 300 302 303 306 310 313 313 310 308 307 308 307 303 301 303 304 305 305 305 306 306 305 306 306 307 306 305 303 301 300 301 302 302 303 304 303 301 300 296 297 303 306 309 315
236 236 237 236 236 236 237 238 240 242 244 246 248 250 251 251 251 251 253 255 255 254 253 254 255 256 256 257 259 262 264 264 265 267 269 271 273 273 273 274 275 277 279 281 283 286 291 294 295 294 292 293 296 298 299 301 306 311 314 312 306 304 304 305 304 301 300 301 302 303 304 305 306 306 306 307 308 309 309 308 305 302 301 300 301 301 301 302 300 298 297 293 294 300 305 309 315
236 236 236 236 236 237 237 238 239 241 243 245 247 248 249 250 251 251 252 253 255 255 254 254 254 256 256 257 259 260 261 261 263 265 267 269 270 271 272 273 275 278 279 281 283 288 291 292 292 290 290 292 295 296 297 302 307 311 315 313 305 301 301 301 301 300 298 299 302 304 305 307 307 307 308 309 309 309 309 308 306 305 303 302 300 300 300 300 298 296 294 292 291 296 303 311 317
235 235 235 234 235 237 237 238 239 240 241 244 245 246 247 249 250 251 251 252 254 254 254 255 254 255 256 256 257 258 259 261 262 264 265 266 268 269 271 273 275 277 279 281 285 289 290 289 288 288 289 291 293 294 297 304 307 308 312 312 308 301 298 298 299 297 296 300 304 306 307 307 307 308 309 309 310 309 309 307 306 304 304 303 301 300 300 299 297 294 293 290 289 293 303 312 316
235 235 234 233 234 236 237 238 238 238 239 242 244 245 246 248 249 249 251 252 253 254 253 254 254 253 254 255 256 256 257 259 260 261 262 264 267 269 270 273 275 276 279 282 286 288 287 287 287 287 289 290 291 293 298 304 303 302 305 309 309 304 297 296 295 294 297 302 305 307 309 308 308 310 310 310 311 310 310 310 308 306 304 303 302 301 300 299 296 292 291 289 288 293 303 309 312
235 235 234 233 232 234 236 237 237 237 238 241 244 244 244 246 248 247 249 251 251 253 252 252 252 252 252 253 253 254 255 256 257 258 260 263 266 268 270 272 274 276 280 283 285 286 286 287 288 288 289 289 290 293 297 298 297 298 302 305 307 303 295 293 293 295 301 306 308 310 311 310 311 313 312 311 312 312 313 315 315 313 310 305 303 302 301 299 296 292 289 287 287 294 301 304 306
235 235 234 232 231 232 234 235 236 236 238 241 243 243 243 245 247 246 247 249 250 251 252 250 250 250 251 251 251 252 253 254 255 258 260 263 265 266 268 270 273 276 279 282 285 286 286 287 288 288 287 287 289 291 292 292 293 297 301 300 300 295 292 293 296 301 307 309 310 311 312 313 315 315 313 313 314 315 316 318 320 320 317 311 305 303 302 300 296 293 288 285 286 291 295 295 295
236 235 233 231 231 231 233 235 236 237 238 241 243 243 243 244 246 246 245 247 249 249 250 250 249 249 250 250 250 251 252 254 256 258 260 261 262 263 266 268 272 275 277 280 284 287 287 286 286 286 285 285 287 289 290 290 291 296 298 296 292 288 294 298 301 307 311 311 311 311 311 312 314 313 311 313 315 316 318 319 321 321 320 316 310 304 302 300 297 295 290 285 284 285 286 285 286
235 235 233 231 231 231 232 234 235 237 238 240 243 243 243 243 244 245 244 245 247 249 248 249 250 249 249 249 249 249 251 254 255 257 258 259 260 261 263 266 269 271 273 276 281 286 287 286 286 286 285 283 284 286 288 289 288 289 291 289 285 284 295 305 308 316 316 311 311 309 307 307 309 309 307 308 310 311 313 314 316 317 317 316 313 308 303 299 296 296 293 288 283 281 281 281 284
235 234 232 230 231 231 232 234 235 236 237 239 242 243 242 242 242 244 244 243 245 248 249 249 249 250 250 249 249 249 250 252 254 255 255 256 257 259 261 263 265 267 270 273 276 278 282 285 287 288 287 284 283 284 285 286 285 284 284 282 279 278 289 306 316 323 321 315 313 307 302 303 305 306 306 306 307 308 309 310 312 314 314 311 309 308 304 300 298 298 297 293 287 283 282 282 285
233 232 231 230 230 231 232 234 235 236 237 238 241 241 241 241 241 242 244 243 243 246 249 249 249 250 250 250 250 250 250 251 252 253 253 253 255 257 259 261 263 265 268 268 266 269 275 279 283 286 288 287 285 284 284 285 283 282 280 277 275 273 276 290 303 310 311 311 313 309 301 299 303 307 308 305 305 306 307 308 308 310 312 310 306 303 303 302 302 301 300 298 293 289 285 285 286
232 231 230 229 229 230 231 233 234 235 237 238 239 240 241 242 241 241 243 244 243 244 247 249 249 250 250 250 250 249 250 250 251 251 251 252 253 256 258 260 262 264 266 262 258 264 270 273 277 282 287 290 291 289 286 284 283 280 276 273 271 270 270 277 286 293 297 297 302 308 303 296 298 304 307 305 303 303 304 304 303 306 310 310 305 300 300 301 303 304 303 299 296 292 289 288 289
232 230 230 229 228 229 231 233 234 235 236 238 239 240 242 242 241 241 242 243 243 243 244 247 249 250 250 250 249 249 249 249 250 250 249 250 253 256 257 259 262 264 265 262 258 259 263 266 271 276 282 288 294 296 291 287 287 282 274 270 268 267 268 272 277 283 288 289 291 299 303 299 297 298 301 303 304 303 302 299 298 301 307 308 303 298 299 302 304 305 305 302 298 294 292 291 292
231 230 230 229 228 228 230 232 233 235 236 237 239 240 241 242 242 241 241 242 243 242 243 245 247 249 250 250 249 248 248 248 248 248 248 250 253 255 257 259 262 263 264 263 261 258 257 262 266 270 275 281 289 294 293 291 291 288 278 273 270 267 267 268 271 275 279 282 284 291 298 301 302 301 301 301 303 302 300 298 296 297 301 302 300 297 296 299 301 302 301 301 300 297 294 294 293
232 230 230 229 228 228 230 232 233 235 236 237 239 240 241 242 242 242 241 241 242 242 242 244 246 248 249 249 249 247 247 247 247 248 250 251 253 254 256 258 260 261 262 263 263 261 258 260 262 264 268 274 281 286 289 290 290 290 281 275 272 270 270 269 270 273 273 275 279 286 294 299 303 306 306 304 303 302 300 300 299 298 298 298 297 294 293 294 296 296 296 297 297 296 293 292 290
232 230 230 230 229 228 230 231 233 235 236 237 238 239 240 241 243 243 242 241 242 242 241 242 244 246 247 248 248 247 247 247 247 249 251 251 251 252 253 256 258 261 262 263 264 263 260 260 260 261 264 268 275 280 284 288 288 286 282 277 274 272 272 272 273 273 273 274 276 283 291 297 300 304 307 309 308 305 302 301 300 299 298 298 295 293 292 292 292 292 294 295 295 293 290 288 288
231 230 230 230 230 229 230 232 233 234 235 236 237 238 239 241 243 243 242 242 241 241 241 241 242 244 245 246 246 246 246 246 247 249 249 248 249 250 252 255 258 260 262 263 263 263 261 260 259 260 262 266 271 275 278 282 285 284 281 278 275 274 273 272 272 273 274 274 276 282 288 293 296 298 303 310 313 310 305 301 300 300 299 297 295 294 292 291 291 292 294 294 292 291 290 288 288
231 230 229 230 230 229 230 232 233 233 234 235 236 237 238 240 241 242 242 242 242 242 241 240 241 242 244 244 244 245 246 247 247 247 246 247 248 250 252 254 257 259 261 262 262 262 262 262 261 261 263 265 266 269 271 275 279 280 278 276 275 274 274 272 270 271 272 273 275 280 284 288 292 293 297 304 309 313 312 306 302 301 301 298 294 293 292 291 291 292 293 291 289 288 289 288 288
230 230 229 229 230 229 230 232 233 234 234 235 235 235 236 237 239 241 242 242 242 242 241 240 240 241 243 244 244 244 246 247 247 246 246 247 248 249 251 253 255 258 260 261 262 262 262 263 264 263 264 264 263 264 267 271 274 275 275 276 275 274 273 273 271 270 272 273 275 278 280 283 287 289 292 298 303 311 315 314 309 305 302 300 296 293 291 291 291 292 291 288 286 287 288 289 289
230 230 229 230 230 229 231 232 233 234 234 235 235 234 235 236 237 239 240 241 241 241 241 240 240 241 243 244 244 245 246 246 246 245 247 248 248 249 250 252 254 257 259 260 261 262 263 263 264 265 265 265 264 264 267 270 272 272 273 274 275 275 275 275 274 273 273 274 276 277 278 281 285 287 288 293 300 308 313 315 314 311 307 302 297 294 292 291 291 291 289 287 286 286 288 290 291
230 230 230 230 230 230 232 233 233 234 234 235 235 233 234 236 236 236 237 238 239 239 239 240 240 240 243 244 244 245 245 245 245 246 247 248 249 249 250 252 253 256 257 259 260 262 263 264 265 265 266 267 267 268 269 271 272 272 273 273 273 274 275 275 276 275 275 275 275 277 279 282 285 285 285 290 296 303 308 311 313 313 312 305 298 294 293 292 291 290 289 288 287 287 289 290 291
231 232 231 231 231 230 232 234 233 234 235 235 235 233 234 235 235 236 236 236 237 238 238 239 239 240 242 243 244 244 245 245 246 247 248 248 249 250 250 252 253 255 257 259 260 261 263 265 266 266 267 269 269 270 271 272 272 272 273 274 273 272 272 273 273 273 273 273 274 277 280 283 284 284 284 287 292 297 302 307 310 311 311 308 301 295 293 292 291 289 288 288 288 289 290 291 291
232 232 231 231 231 231 233 235 234 235 236 235 234 232 233 234 234 235 235 235 236 237 237 238 238 239 241 242 243 244 245 246 247 248 248 248 249 250 251 252 253 255 257 259 261 262 263 265 266 267 269 270 271 270 271 272 273 273 274 275 275 273 272 272 271 271 271 271 273 276 278 280 283 284 285 287 290 293 297 302 307 310 310 310 305 297 293 292 291 290 289 289 290 291 291 291 291
230 230 229 229 230 229 231 234 234 234 235 235 233 232 231 233 233 233 233 233 234 235 237 238 239 239 241 242 244 245 245 246 247 247 248 249 249 250 251 252 254 256 257 259 262 264 264 264 266 267 269 270 269 269 272 273 273 274 275 276 276 275 275 274 273 272 272 273 274 274 275 277 280 282 284 286 288 291 294 298 303 308 310 310 307 301 296 293 292 292 292 292 291 291 291 291 291
228 229 228 228 228 228 229 232 233 232 233 233 232 231 231 232 233 232 232 233 234 235 237 238 239 240 241 243 245 246 246 246 246 247 248 248 250 251 252 253 254 256 258 259 261 263 264 265 266 267 267 267 266 267 271 273 274 274 275 276 277 277 277 277 276 274 274 274 274 274 275 277 279 281 282 285 287 289 292 295 299 305 308 310 308 305 301 297 295 294 294 293 292 291 291 292 292
226 227 227 228 228 228 229 232 232 231 232 232 231 230 230 232 233 233 232 233 235 236 237 239 240 241 242 244 245 246 246 247 247 247 248 249 250 251 252 254 255 257 260 262 262 263 265 267 268 268 267 267 267 268 271 273 274 275 275 277 278 278 278 278 278 276 274 275 275 274 275 277 279 281 282 284 286 288 289 292 297 302 306 309 309 307 304 301 298 297 295 293 292 292 293 293 293
225 226 226 226 227 228 229 232 233 232 232 232 232 230 229 230 232 232 233 234 235 237 238 240 242 243 243 244 245 246 247 247 248 249 249 250 252 253 254 255 257 259 261 263 264 265 267 268 269 269 268 269 270 271 273 273 273 274 275 276 277 277 277 278 278 277 276 276 276 275 275 277 279 281 283 284 286 288 289 292 296 301 304 307 308 308 306 304 302 299 297 295 294 294 294 293 293
224 225 225 225 227 228 229 232 233 233 233 233 233 232 230 231 232 233 233 234 236 237 239 241 243 244 244 245 246 247 248 248 249 250 251 252 253 254 255 257 258 259 260 261 264 266 267 269 269 270 270 271 272 273 274 274 274 274 275 276 276 276 276 277 277 277 276 276 276 276 275 276 278 280 282 284 286 288 291 293 297 301 303 305 307 308 307 305 304 301 299 297 295 295 294 294 294
224 225 225 224 226 227 229 232 233 232 232 232 233 232 232 232 233 234 235 235 236 238 239 241 243 244 245 245 246 247 249 250 251 251 252 253 254 255 256 257 258 260 260 261 263 266 267 269 270 270 271 272 273 273 273 274 274 275 275 275 275 275 275 275 275 276 275 274 274 275 275 276 278 280 282 284 287 289 292 294 298 301 303 304 306 307 307 306 304 301 299 297 296 295 295 295 294
223 224 225 224 225 226 228 231 232 232 231 232 232 232 232 232 233 234 235 236 237 238 240 242 243 244 245 246 247 248 250 251 252 253 253 254 255 255 256 258 259 260 261 262 264 265 267 268 270 270 272 274 274 273 273 274 275 275 275 274 274 273 272 272 273 274 274 273 273 274 275 276 278 280 282 284 287 290 292 295 298 301 302 303 304 306 306 305 303 301 299 297 296 296 295 295 295
222 223 224 224 225 226 228 230 231 231 231 232 233 232 231 231 232 233 235 237 238 239 240 242 244 245 246 247 248 249 250 251 252 253 254 255 255 256 257 257 259 260 261 262 263 264 266 267 268 270 273 274 273 273 275 276 276 275 274 273 272 271 270 271 271 272 272 272 272 274 275 277 279 280 282 285 288 290 293 296 299 300 301 303 304 305 306 305 303 301 299 297 295 295 295 295 296
220 222 224 224 225 226 228 229 230 231 230 231 232 232 231 231 231 233 235 236 237 238 240 241 243 244 245 246 247 248 249 250 251 252 253 255 255 256 256 257 257 259 260 261 262 263 264 266 267 269 270 268 268 271 274 275 275 275 273 272 271 271 270 270 271 271 271 271 272 273 275 277 279 281 283 286 289 292 295 297 299 300 301 302 303 305 305 304 303 301 299 298 297 296 297 297 298
218 220 222 223 224 225 227 228 229 229 229 230 232 233 232 232 233 234 236 237 238 239 240 241 242 243 244 244 245 246 248 249 250 251 253 254 254 255 255 255 256 257 258 259 261 262 264 266 267 267 266 262 264 268 270 270 272 273 274 272 271 270 270 269 270 270 270 271 271 273 275 277 279 282 285 288 290 293 295 297 298 299 300 301 303 304 304 304 304 303 302 301 300 300 299 300 300
217 219 221 221 222 224 226 228 228 229 229 229 232 233 233 232 234 235 236 238 239 240 241 241 242 242 243 245 245 246 247 249 250 251 252 253 253 254 254 254 254 255 256 258 260 262 263 265 267 268 267 264 264 267 270 271 269 270 272 272 271 270 269 269 268 268 269 270 271 273 275 277 280 283 286 288 290 292 294 295 296 297 298 300 302 303 304 305 305 305 305 304 303 302 301 301 301
216 217 219 220 221 223 225 227 228 229 229 229 232 233 232 231 233 234 235 236 236 237 238 239 240 242 243 244 245 246 247 249 250 251 251 252 252 252 252 252 253 254 255 257 259 261 263 266 268 268 267 267 268 267 268 269 269 268 269 271 272 271 269 267 266 266 267 268 270 273 275 278 281 283 285 287 289 291 292 293 294 296 297 300 301 303 305 306 306 306 306 305 304 303 302 302 302
216 217 219 220 220 222 224 226 227 229 228 229 231 233 232 231 232 234 233 233 234 235 237 238 239 241 242 244 245 246 247 248 249 250 250 251 251 252 252 252 253 253 255 256 258 260 262 265 265 262 260 261 263 261 258 262 267 269 270 271 271 270 268 266 265 266 266 268 270 273 276 278 280 282 285 286 288 289 290 292 293 295 298 300 302 303 305 306 306 306 306 305 305 304 303 303 302
216 218 220 220 220 221 223 225 227 228 227 229 231 232 231 230 231 233 233 233 234 235 237 238 239 241 243 245 246 247 248 248 248 249 249 250 251 251 251 252 252 253 254 255 257 259 261 263 263 262 261 260 259 257 255 260 267 272 274 274 272 270 268 266 266 266 266 268 270 273 276 278 280 282 284 286 287 289 290 292 294 296 298 300 302 303 304 306 307 307 307 306 305 304 304 303 303
218 220 222 222 222 223 224 226 227 226 226 229 231 231 230 227 229 232 232 232 232 233 236 238 240 242 244 246 248 249 248 248 247 247 248 249 250 251 251 251 252 253 254 255 256 257 259 260 259 257 260 264 261 257 257 261 266 270 272 273 271 269 268 267 267 266 267 269 271 273 276 278 280 282 283 285 287 289 291 293 295 297 298 300 301 302 304 306 306 307 306 306 305 305 304 304 303
219 221 222 222 222 223 225 226 226 226 226 229 231 231 230 227 227 230 231 230 231 233 237 240 242 243 245 247 247 246 245 245 246 246 246 248 250 251 251 251 251 252 253 253 255 256 257 259 259 255 253 253 252 254 259 262 265 267 269 270 271 269 268 267 267 267 268 270 272 274 276 278 280 282 284 286 288 291 293 295 296 297 298 299 300 302 303 305 306 306 305 305 305 304 304 304 304
217 219 221 221 220 221 222 222 223 223 225 228 231 231 228 226 226 228 230 229 230 234 237 240 242 243 244 245 244 243 244 245 245 246 246 247 248 250 251 251 251 251 252 252 253 255 256 258 260 259 255 252 251 255 261 264 266 266 267 268 269 268 267 267 267 268 270 272 274 276 278 280 282 283 285 287 290 292 294 295 296 297 298 299 301 302 304 305 305 304 304 304 305 305 305 305 305
217 219 220 219 219 220 219 220 220 221 223 225 228 228 224 223 225 228 231 231 231 233 236 237 239 241 242 242 242 242 243 245 247 248 248 247 247 248 250 250 250 250 251 252 252 254 256 257 259 260 259 258 259 261 264 265 265 264 264 265 266 266 267 268 269 270 272 273 275 278 280 281 283 285 287 290 292 293 294 295 296 297 299 300 302 302 303 303 304 304 304 305 305 305 305 305 305
216 219 219 218 218 218 218 219 220 222 224 224 225 226 223 220 223 227 231 233 232 232 234 235 237 239 240 241 242 242 243 245 248 249 250 249 249 248 249 250 250 251 251 251 252 253 254 256 258 260 259 259 261 263 264 264 263 262 262 262 264 266 268 269 271 272 273 275 277 279 281 283 285 287 289 290 292 293 294 295 297 298 300 300 301 301 302 303 303 304 305 305 305 305 305 305 306
214 216 217 217 218 217 217 219 220 222 224 224 225 226 224 220 221 225 229 231 230 230 231 233 234 235 238 240 241 242 244 246 248 249 251 251 251 250 250 249 250 250 251 251 251 252 253 255 256 258 259 260 261 262 263 263 263 263 264 264 265 268 269 271 272 274 275 277 279 280 283 285 286 288 289 290 291 293 294 296 297 298 299 299 300 301 302 303 304 305 305 305 305 305 305 306 307
214 215 215 215 216 216 216 218 219 222 224 223 223 225 224 220 220 223 227 229 229 228 229 230 230 232 235 239 242 244 245 246 248 249 251 252 253 253 252 251 250 250 250 251 251 251 252 254 255 257 258 260 261 262 263 263 263 264 265 266 268 269 271 272 273 274 276 278 280 282 284 286 287 288 290 291 293 294 295 296 297 298 298 299 300 301 303 304 304 304 305 305 305 305 306 307 308
215 217 217 217 216 216 216 217 218 220 222 222 222 223 222 219 219 221 225 228 227 226 227 228 230 232 236 240 242 244 245 246 248 250 252 253 253 254 254 253 252 251 251 251 251 251 252 253 254 255 257 259 261 261 262 262 263 263 265 266 268 270 271 272 273 275 276 278 281 283 285 287 288 289 291 293 294 295 296 297 297 298 299 300 301 303 303 304 304 304 304 304 305 306 307 308 309
214 215 216 216 217 216 217 218 219 220 222 222 222 222 222 219 217 218 223 226 225 224 226 228 231 234 238 241 242 243 244 246 248 250 252 253 253 254 254 254 253 252 251 251 250 251 252 253 254 255 256 258 260 260 260 261 262 263 264 266 268 269 271 273 275 276 278 280 282 284 286 288 290 291 293 294 295 296 297 298 298 299 300 301 302 303 304 304 303 303 304 305 306 307 308 309 309